This is the latest recevied weather packets stored in our database for station/object KC9MWQ-13. If no packets are shown the sender has not sent any weather packets the latest 10 day(s).
| Time | Temp. | Humidity | Pressure | Rain* | Wind** | Luminosity | Snow |
|---|---|---|---|---|---|---|---|
| 1777583145 | 13.89° C | 60% | 1016.3 hPa | 0 mm | - | 154 W/m² | - |
| 1777582841 | 13.33° C | 62% | 1016.3 hPa | 0 mm | - | 133 W/m² | - |
| 1777582538 | 13.33° C | 61% | 1016.3 hPa | 0 mm | - | 172 W/m² | - |
| 1777582233 | 13.89° C | 58% | 1016.3 hPa | 0 mm | - | 147 W/m² | - |
| 1777581931 | 13.89° C | 59% | 1016.3 hPa | 0 mm | - | 154 W/m² | - |
| 1777581627 | 13.33° C | 61% | 1016.5 hPa | 0 mm | - | 217 W/m² | - |
| 1777581321 | 13.89° C | 59% | 1016.2 hPa | 0 mm | - | 218 W/m² | - |
| 1777581016 | 13.89° C | 58% | 1016.5 hPa | 0 mm | - | 244 W/m² | - |
| 1777580715 | 14.44° C | 57% | 1016.7 hPa | 0 mm | - | 280 W/m² | - |
| 1777580412 | 13.89° C | 60% | 1016.7 hPa | 0 mm | - | 252 W/m² | - |
| 1777580108 | 13.89° C | 62% | 1016.6 hPa | 0 mm | - | 220 W/m² | - |
| 1777579804 | 13.89° C | 61% | 1016.6 hPa | 0 mm | - | 180 W/m² | - |
| 1777579503 | 14.44° C | 58% | 1016.7 hPa | 0 mm | - | 213 W/m² | - |
| 1777579197 | 14.44° C | 59% | 1016.6 hPa | 0 mm | - | 625 W/m² | - |
| 1777578893 | 13.89° C | 57% | 1016.8 hPa | 0 mm | - | 235 W/m² | - |
| 1777578589 | 13.33° C | 61% | 1016.6 hPa | 0 mm | - | 682 W/m² | - |
| 1777578289 | 14.44° C | 57% | 1016.8 hPa | 0 mm | - | 158 W/m² | - |
| 1777577985 | 14.44° C | 54% | 1016.9 hPa | 0 mm | - | 699 W/m² | - |
| 1777577680 | 13.89° C | 59% | 1016.9 hPa | 0 mm | - | 698 W/m² | - |
| 1777577378 | 13.33° C | 59% | 1016.9 hPa | 0 mm | - | 331 W/m² | - |
| 1777577074 | 13.33° C | 57% | 1017 hPa | 0 mm | - | 285 W/m² | - |
| 1777576771 | 13.89° C | 58% | 1017 hPa | 0 mm | - | 296 W/m² | - |
| 1777576470 | 14.44° C | 61% | 1017 hPa | 0 mm | - | 371 W/m² | - |
| 1777576167 | 14.44° C | 59% | 1017.1 hPa | 0 mm | - | 517 W/m² | - |
| 1777575866 | 13.89° C | 54% | 1017.1 hPa | 0 mm | - | 787 W/m² | - |
* Rain latest hour (hover to see other rain measurements)
** Current wind speed in m/s (hover to see current wind gust speed)